This is the latest recevied weather packets stored in our database for station/object DO1SC. If no packets are shown the sender has not sent any weather packets the latest 10 day(s).
| Time | Temp. | Humidity | Pressure | Rain* | Wind** | Luminosity | Snow |
|---|---|---|---|---|---|---|---|
| 1777856718 | 15° C | 52% | 1015.3 hPa | - | - | 0 W/m² | - |
| 1777856129 | 15.56° C | 50% | 1015.3 hPa | - | - | 0 W/m² | - |
| 1777855522 | 15.56° C | 49% | 1015.2 hPa | - | - | 0 W/m² | - |
| 1777854933 | 15° C | 52% | 1015.2 hPa | - | - | 0 W/m² | - |
| 1777854324 | 14.44° C | 55% | 1015.2 hPa | - | - | 0 W/m² | - |
| 1777853716 | 15° C | 57% | 1015.2 hPa | - | - | 0 W/m² | - |
| 1777853128 | 15.56° C | 53% | 1014.6 hPa | - | - | 0 W/m² | - |
| 1777852520 | 16.11° C | 49% | 1014.7 hPa | - | - | 0 W/m² | - |
| 1777851932 | 16.11° C | 48% | 1015 hPa | - | - | 0 W/m² | - |
| 1777851323 | 16.11° C | 49% | 1015.1 hPa | - | - | 0 W/m² | - |
| 1777850735 | 16.11° C | 50% | 1015 hPa | - | - | 0 W/m² | - |
| 1777850127 | 16.11° C | 50% | 1015 hPa | - | - | 0 W/m² | - |
| 1777849518 | 16.11° C | 52% | 1015.2 hPa | - | - | 0 W/m² | - |
| 1777848929 | 16.11° C | 51% | 1015.1 hPa | - | - | 0 W/m² | - |
| 1777848320 | 15.56° C | 52% | 1015.1 hPa | - | - | 0 W/m² | - |
| 1777847732 | 15.56° C | 53% | 1015 hPa | - | - | 0 W/m² | - |
| 1777847138 | 15.56° C | 53% | 1015 hPa | - | - | 0 W/m² | - |
| 1777846536 | 15.56° C | 54% | 1014.9 hPa | - | - | 0 W/m² | - |
| 1777845927 | 15° C | 54% | 1014.7 hPa | - | - | 0 W/m² | - |
| 1777845318 | 15° C | 55% | 1014.7 hPa | - | - | 0 W/m² | - |
| 1777844730 | 15° C | 56% | 1014.6 hPa | - | - | 0 W/m² | - |
| 1777844125 | 15.56° C | 56% | 1014.5 hPa | - | - | 0 W/m² | - |
| 1777843536 | 15.56° C | 53% | 1014.6 hPa | - | - | 0 W/m² | - |
| 1777842925 | 16.11° C | 51% | 1014.5 hPa | - | - | 0 W/m² | - |
| 1777842316 | 16.11° C | 51% | 1014.4 hPa | - | - | 0 W/m² | - |
* Rain since midnight (hover to see other rain measurements)
** Current wind speed in m/s (hover to see current wind gust speed)